Regional Weather Roundup
Issued by NWS

Home | Current Version | Previous Version | Text Only | Print | Product List | Glossary Off
Versions: 1 2 3 4 5 6 7 8 9 10 11 12 13 14 15 16 17 18 19 20 21 22 23 24 25 26 27 28 29 30 31 32 33 34 35 36 37 38 39 40 41 42 43 44 45 46 47 48 49 50

000
ASUS43 KLOT 011810
RWRIL

ILLINOIS REGIONAL WEATHER ROUNDUP
NATIONAL WEATHER SERVICE CHICAGO/ROMEOVILLE IL
1200 PM CST SUN FEB 01 2015

NOTE: "FAIR" INDICATES FEW OR NO CLOUDS BELOW 12,000 FEET WITH NO
SIGNIFICANT WEATHER AND/OR OBSTRUCTIONS TO VISIBILITY.

* THESE STATIONS ARE NOT UNDER NWS QUALITY CONTROL. THEY ALSO MAY NOT
  REPORT WEATHER SUCH AS PRECIPITATION OR FOG.

ILZ001-002-007-009-015-016-024-011900-
NORTHWEST ILLINOIS

CITY           SKY/WX    TMP DP  RH WIND       PRES   REMARKS
MOLINE         SNOW      27  23  85 NE18G25   29.78F VSB 1/2 WCI  14
6HR MIN TEMP:  27; 6HR MAX TEMP:  32; 6HR PCP:  0.23;

STERLING*        N/A    N/A N/A N/A MISG        N/A
SAVANNA*       LGT SNOW  25  21  84 NE14G21   29.86R WCI  14
$$

ILZ003-004-008-010-011-017-018-011900-
NORTH CENTRAL ILLINOIS

CITY           SKY/WX    TMP DP  RH WIND       PRES   REMARKS
ROCKFORD       SNOW      24  20  84 NE23G38   29.86F VSB 1/2 WCI   9
6HR MIN TEMP:  24; 6HR MAX TEMP:  29; 6HR PCP:  0.12;

FREEPORT*      LGT SNOW  23  20  87 NE26G37   29.87F WCI   6
ROCHELLE*      LGT SNOW  25  23  91 NE22      29.79F VSB 1   WCI  11
DE KALB*       LGT SNOW  25  22  90 NE24G32   29.79F WCI   9
PERU*          SNOW      33  33 100 NE14      29.74F VSB 1/2 WCI  23
$$

ILZ005-006-012>014-019>023-011900-
NORTHEAST ILLINOIS

CITY           SKY/WX    TMP DP  RH WIND       PRES   REMARKS
CHICAGO-OHARE  SNOW      26  24  92 NE20G26   29.82F VSB 1/2 WCI  12
6HR MIN TEMP:  26; 6HR MAX TEMP:  30; 6HR PCP:  0.26;

CHICAGO-MIDWAY SNOW      30  28  92 NE18G25   29.80F VSB 1/2 WCI  18
6HR MIN TEMP:  30; 6HR MAX TEMP:  33; 6HR PCP:  0.14;

AURORA         SNOW      29  25  85 NE28      29.77F VSB 1/2 WCI  14
6HR MIN TEMP:  30; 6HR MAX TEMP:  32; 6HR PCP:  0.02;

LANSING*       SNOW      32  32 100 E5        29.76F VSB 1/2 WCI  27
JOLIET*        LGT SNOW  31  30  95 NE8       29.76F WCI  24
WAUKEGAN       HVY SNOW  24  22  91 NE18G28   29.89F VSB 1/4 WCI  10
6HR MIN TEMP:  24; 6HR MAX TEMP:  28; 6HR PCP: TRACE;

DUPAGE AIRPORT LGT SNOW  28  24  85 NE22G30   29.79F VSB 3/4 WCI  14
6HR MIN TEMP:  28; 6HR MAX TEMP:  31; 6HR PCP:  0.03;

KANKAKEE*      LGT SNOW  33  32  96 E12       29.74F WCI  24
WHEELING       SNOW      26  23  88 NE13G26   29.87F VSB 1/4 WCI  15
6HR MIN TEMP:  26; 6HR MAX TEMP:  31; 6HR PCP: TRACE;

MORRIS*        LGT SNOW  32  32 100 NE5       29.74F VSB 3/4 WCI  28
ROMEOVILLE*    LGT SNOW  31  30  96 NE10      29.77F WCI  22
NORTHERLY ISL    N/A     29  28  96 NE22        N/A  WCI  16
$$

LMZ740>746-011900-
SOUTHERN LAKE MICHIGAN

STATION/POSITION SKY/WX   TEMP    WIND        PRES    VSBY  WAVE
                          AIR SEA DIR/SP/G                  HT/PER
                          (F)     (DEG/KT/KT) (MB)    (MI)  (FT/S)
WAUKEGAN HARBOR            26      50/ 34/ 37   N/A
HARRISON CRIB              27      60/ 30/ 34   N/A
BURNHAM HARBOR             29      40/ 20/ 28   N/A
CALUMET HARBOR             29      60/ 21/ 29   N/A
MICHIGAN CITY              28      50/ 18/ 24   N/A
$$

ILZ025>027-034>036-040-047-049-050-058-095>099-011900-
WEST-CENTRAL ILLINOIS

CITY           SKY/WX    TMP DP  RH WIND       PRES   REMARKS
QUINCY         LGT SNOW  34  32  92 N6        29.68F FOG     WCI  29
GALESBURG*     LGT SNOW  32  32 100 NE14      29.71F WCI  22
MACOMB*        RAIN      33  33 100 NE9       29.72F WCI  25
JACKSONVILLE*  SNOW      35  33  94 CALM      29.67F VSB 1/2
PITTSFIELD*    RAIN      34  33  96 CALM      29.68F
$$

ILZ028>032-037-038-041>044-048-051>054-059>061-011900-
CENTRAL ILLINOIS

CITY           SKY/WX    TMP DP  RH WIND       PRES   REMARKS
PONTIAC        LGT SNOW  34  33  98 E14       29.71F VSB 3/4 WCI  24
BLOOMINGTON    LGT SNOW  33  32  96 SE3       29.69F VSB 3/4
DECATUR        LGT RAIN  34  33  96 S7        29.67F FOG     WCI  28
PEORIA         SNOW      34  32  92 NE6       29.70F VSB 1/4 WCI  29
6HR MIN TEMP:  34; 6HR MAX TEMP:  34; 6HR PCP:  0.34;

LACON*         LGT SNOW  32  31  95 E8        29.73F WCI  25
LINCOLN*       SNOW      34  33  96 CALM      29.69F VSB 1/2
SPRINGFIELD    SNOW      34  32  92 CALM      29.68F VSB 1/2
6HR MIN TEMP:  33; 6HR MAX TEMP:  34; 6HR PCP:  0.18;

TAYLORVILLE    LGT RAIN  34  32  93 S6        29.67F WCI  29
$$

ILZ033-039-045-046-055>057-062-063-011900-
EAST-CENTRAL ILLINOIS

CITY           SKY/WX    TMP DP  RH WIND       PRES   REMARKS
CHAMPAIGN      LGT SNOW  34  32  92 SE9       29.67F FOG     WCI  27
DANVILLE*      LGT SNOW  33  32  98 SE8       29.67F WCI  25
RANTOUL*       LGT SNOW  35  33  95 SE7       29.68F WCI  29
MATTOON        LGT RAIN  35  33  92 SE10      29.65F FOG     WCI  27
PARIS*         CLOUDY    34  33  99 SE13      29.69F FOG     WCI  25
$$

ILZ079-100>102-011900-
SOUTHWEST ILLINOIS

CITY           SKY/WX    TMP DP  RH WIND       PRES   REMARKS
ALTON          DRIZZLE   37  37 100 SW10      29.68F WCI  30
BELLEVILLE     CLOUDY    39  39 100 SW3       29.66F
CAHOKIA*       CLOUDY    41  39  93 SW5       29.67F FOG
SPARTA*        CLOUDY    41  40  97 S8        29.68F
$$

ILZ064>066-069>071-074>076-080>082-084>086-088>090-092>094-011900-
SOUTH-CENTRAL ILLINOIS

CITY           SKY/WX    TMP DP  RH WIND       PRES   REMARKS
CARBONDALE     CLOUDY    44  42  93 S12       29.68F FOG
6HR MIN TEMP:  39; 6HR MAX TEMP:  44; 6HR PCP:  0.36;

CAIRO*         DRIZZLE  N/A N/A N/A S3        29.71F
EFFINGHAM*     CLOUDY    37  34  90 SE7       29.68F FOG     WCI  31
MARION         LGT RAIN  45  45 100 S12       29.70F FOG
MT. VERNON     CLOUDY    41  37  87 S7        29.68F
CENTRALIA*     CLOUDY    39  38  93 S8        29.67F FOG     WCI  34
SALEM*         DRIZZLE   40  38  93 S6        29.67F
METROPOLIS*    DRIZZLE   47  47 100 S5        29.70F
$$

ILZ067-068-072-073-078-083-087-091-011900-
SOUTHEAST ILLINOIS

CITY           SKY/WX    TMP DP  RH WIND       PRES   REMARKS
LAWRENCEVILLE  CLOUDY    40  39  97 S10       29.71F FOG
FLORA*         CLOUDY    37  37 100 SE6       29.68F FOG     WCI  33
FAIRFIELD*     CLOUDY    41  40  98 S8        29.67F FOG
HARRISBURG*    HVY RAIN  44  44 100 S7        29.71F
ROBINSON*      CLOUDY    37  36  99 SE7       29.72F FOG     WCI  31
CARMI*         CLOUDY    44  44 100 SE12      29.70F FOG
$$

ABBREVIATIONS USED IN REMARKS
   TC - TEMPERATURE IN CELSIUS
  WCI - WIND CHILL INDEX
   HX - HEAT INDEX
  VSB - VISIBILITY
$$



USA.gov is the U.S. government's official web portal to all federal, state and local government web resources and services.